QPF
0.00 0.00 0.00 0.00 0.00 0.00 0.00 0.00 0.00 0.00 0.00 0.00 0.00 0.00 0.00 0.00 0.00 0.00 0.00 0.00 0.00 0.00 0.00 0.00 0.00 0.00 0.00 0.00 0.00 0.00 0.00 0.00 0.00 0.00 0.00 0.00 0.00 0.00 0.00 0.00 0.00 0.00 0.00 0.00
0.00 0.00 0.00 0.00 0.00 0.00 0.00 0.00 0.00 0.00 0.00 0.00 0.00 0.00 0.00 0.00 0.00 0.00 0.00 0.00 0.00 0.00 0.00 0.00 0.00 0.00 0.00 0.00 0.00 0.00 0.00 0.00 0.00 0.00 0.00 0.00 0.00 0.00 0.00 0.00 0.00 0.00 0.00 0.00
0.00 0.00 0.00 0.00 0.00 0.00 0.00 0.00 0.00 0.00 0.00 0.00 0.00 0.00 0.00 0.00 0.00 0.00 0.00 0.00 0.00 0.00 0.00 0.00 0.00 0.00 0.00 0.00 0.00 0.00 0.00 0.00 0.00 0.00 0.00 0.00 0.00 0.00 0.00 0.00 0.00 0.00 0.00 0.00
0.00 0.00 0.00 0.00 0.00 0.00 0.00 0.00 0.00 0.00 0.00 0.00 0.00 0.00 0.00 0.00 0.00 0.00 0.00 0.00 0.00 0.00 0.00 0.00 0.00 0.00 0.00 0.00 0.00 0.00 0.00 0.00 0.00 0.00 0.00 0.00 0.00 0.00 0.00 0.00 0.00 0.00 0.00 0.00
0.01 0.00 0.00 0.00 0.00 0.00 0.00 0.00 0.00 0.00 0.00 0.00 0.01 0.00 0.00 0.00 0.00 0.00 0.00 0.00 0.00 0.00 0.00 0.00 0.00 0.00 0.00 0.00 0.00 0.00 0.00 0.00 0.00 0.00 0.00 0.00 0.00 0.00 0.00 0.00 0.00 0.00 0.00 0.00
0.01 0.01 0.01 0.01 0.00 0.00 0.00 0.01 0.00 0.00 0.00 0.00 0.00 0.00 0.00 0.00 0.00 0.00 0.00 0.00 0.00 0.00 0.00 0.00 0.00 0.00 0.00 0.00 0.00 0.00 0.00 0.00 0.00 0.00 0.00 0.00 0.00 0.00 0.00 0.00 0.00 0.00 0.00 0.00
0.01 0.02 0.01 0.00 0.00 0.01 0.01 0.01 0.00 0.00 0.00 0.00 0.00 0.00 0.00 0.00 0.00 0.00 0.00 0.00 0.00 0.00 0.00 0.00 0.00 0.00 0.00 0.00 0.00 0.00 0.00 0.00 0.00 0.00 0.00 0.00 0.00 0.00 0.00 0.00 0.00 0.00 0.00 0.00
0.02 0.03 0.01 0.00 0.01 0.01 0.01 0.01 0.00 0.00 0.00 0.00 0.00 0.00 0.00 0.00 0.00 0.00 0.00 0.00 0.00 0.00 0.00 0.00 0.00 0.00 0.00 0.00 0.00 0.00 0.00 0.00 0.00 0.00 0.00 0.00 0.00 0.00 0.00 0.00 0.00 0.00 0.00 0.01
0.01 0.01 0.01 0.01 0.01 0.01 0.01 0.00 0.00 0.00 0.00 0.01 0.01 0.00 0.00 0.00 0.00 0.00 0.00 0.00 0.00 0.00 0.00 0.00 0.00 0.00 0.00 0.00 0.00 0.00 0.00 0.00 0.00 0.00 0.00 0.00 0.00 0.00 0.00 0.00 0.00 0.00 0.00 0.00
0.01 0.00 0.00 0.00 0.00 0.00 0.00 0.00 0.00 0.00 0.00 0.00 0.01 0.00 0.00 0.00 0.00 0.00 0.00 0.00 0.00 0.00 0.00 0.00 0.00 0.00 0.00 0.00 0.00 0.00 0.00 0.00 0.00 0.00 0.00 0.00 0.00 0.00 0.00 0.00 0.00 0.00 0.00 0.00
0.01 0.00 0.00 0.00 0.00 0.00 0.00 0.00 0.00 0.00 0.00 0.00 0.00 0.00 0.00 0.00 0.00 0.00 0.00 0.00 0.00 0.00 0.00 0.00 0.00 0.00 0.00 0.00 0.00 0.00 0.00 0.00 0.00 0.00 0.00 0.00 0.00 0.00 0.00 0.00 0.00 0.00 0.00 0.00
0.01 0.00 0.00 0.00 0.00 0.00 0.00 0.00 0.00 0.00 0.00 0.00 0.00 0.00 0.00 0.00 0.00 0.00 0.00 0.00 0.00 0.00 0.00 0.00 0.00 0.00 0.00 0.00 0.01 0.00 0.00 0.00 0.00 0.00 0.00 0.00 0.00 0.00 0.00 0.00 0.00 0.00 0.00 0.00
0.01 0.01 0.00 0.01 0.01 0.01 0.01 0.01 0.01 0.01 0.01 0.01 0.00 0.00 0.00 0.00 0.00 0.00 0.00 0.00 0.00 0.00 0.00 0.00 0.00 0.00 0.00 0.00 0.00 0.00 0.00 0.00 0.00 0.00 0.00 0.00 0.00 0.00 0.00 0.00 0.00 0.00 0.00 0.00
0.01 0.01 0.01 0.01 0.01 0.01 0.01 0.01 0.01 0.01 0.01 0.01 0.01 0.01 0.01 0.01 0.00 0.00 0.00 0.00 0.00 0.00 0.00 0.00 0.00 0.01 0.01 0.00 0.00 0.00 0.00 0.00 0.00 0.00 0.00 0.00 0.00 0.01 0.01 0.01 0.01 0.01 0.01 0.01
0.01 0.01 0.01 0.01 0.01 0.01 0.01 0.01 0.01 0.01 0.01 0.01 0.01 0.01 0.01 0.01 0.01 0.00 0.00 0.00 0.00 0.00 0.00 0.00 0.00 0.00 0.00 0.00 0.00 0.00 0.00 0.00 0.00 0.00 0.00 0.00 0.01 0.01 0.01 0.01 0.01 0.00 0.00 0.01
0.01 0.01 0.01 0.01 0.01 0.01 0.01 0.01 0.01 0.00 0.00 0.01 0.01 0.01 0.01 0.01 0.01 0.01 0.01 0.00 0.00 0.00 0.00 0.00 0.00 0.00 0.00 0.00 0.00 0.00 0.00 0.00 0.00 0.00 0.00 0.01 0.01 0.01 0.00 0.00 0.00 0.00 0.00 0.00
0.02 0.02 0.01 0.01 0.01 0.02 0.01 0.01 0.01 0.01 0.01 0.01 0.01 0.01 0.01 0.01 0.00 0.00 0.00 0.00 0.00 0.00 0.00 0.00 0.00 0.00 0.00 0.00 0.00 0.00 0.00 0.00 0.01 0.01 0.01 0.01 0.01 0.01 0.01 0.00 0.00 0.00 0.00 0.00
0.03 0.02 0.01 0.01 0.01 0.01 0.01 0.01 0.01 0.01 0.01 0.01 0.02 0.01 0.02 0.02 0.02 0.01 0.01 0.00 0.00 0.00 0.00 0.00 0.00 0.00 0.01 0.00 0.01 0.01 0.01 0.01 0.01 0.01 0.01 0.02 0.01 0.01 0.01 0.01 0.00 0.00 0.01 0.01
0.02 0.02 0.03 0.03 0.01 0.01 0.01 0.01 0.01 0.01 0.01 0.01 0.01 0.01 0.01 0.01 0.01 0.01 0.01 0.01 0.00 0.00 0.00 0.00 0.00 0.00 0.00 0.00 0.01 0.01 0.01 0.01 0.01 0.01 0.02 0.02 0.02 0.02 0.01 0.01 0.01 0.01 0.01 0.01
0.03 0.04 0.06 0.06 0.04 0.02 0.01 0.01 0.01 0.01 0.01 0.00 0.00 0.01 0.01 0.01 0.01 0.01 0.00 0.01 0.01 0.01 0.01 0.01 0.01 0.01 0.01 0.01 0.01 0.01 0.01 0.01 0.01 0.02 0.03 0.03 0.03 0.03 0.03 0.02 0.02 0.02 0.02 0.02
0.04 0.04 0.05 0.06 0.06 0.07 0.04 0.02 0.01 0.01 0.01 0.01 0.01 0.01 0.01 0.01 0.01 0.01 0.01 0.01 0.02 0.02 0.02 0.02 0.02 0.01 0.02 0.01 0.01 0.01 0.01 0.01 0.01 0.02 0.02 0.02 0.03 0.03 0.02 0.02 0.02 0.01 0.01 0.02
0.06 0.05 0.04 0.03 0.04 0.05 0.06 0.05 0.03 0.02 0.02 0.02 0.01 0.01 0.01 0.02 0.03 0.03 0.02 0.02 0.02 0.01 0.01 0.01 0.01 0.01 0.01 0.00 0.00 0.00 0.00 0.00 0.00 0.01 0.01 0.01 0.01 0.01 0.01 0.01 0.01 0.01 0.01 0.02
0.05 0.04 0.03 0.02 0.02 0.02 0.04 0.04 0.04 0.04 0.03 0.03 0.02 0.02 0.02 0.03 0.04 0.03 0.02 0.01 0.01 0.01 0.01 0.01 0.00 0.00 0.00 0.00 0.00 0.00 0.00 0.00 0.00 0.00 0.01 0.01 0.02 0.02 0.01 0.01 0.01 0.01 0.01 0.01
0.04 0.04 0.03 0.01 0.01 0.00 0.01 0.02 0.03 0.03 0.03 0.03 0.03 0.03 0.02 0.02 0.02 0.02 0.01 0.01 0.00 0.00 0.00 0.00 0.00 0.00 0.00 0.00 0.00 0.01 0.01 0.01 0.01 0.01 0.02 0.02 0.02 0.01 0.01 0.02 0.01 0.01 0.01 0.01
0.05 0.06 0.04 0.02 0.02 0.01 0.01 0.00 0.01 0.01 0.01 0.02 0.02 0.02 0.02 0.01 0.01 0.01 0.00 0.00 0.00 0.00 0.00 0.00 0.00 0.00 0.00 0.00 0.00 0.01 0.01 0.01 0.01 0.01 0.01 0.01 0.01 0.01 0.01 0.02 0.01 0.02 0.02 0.02
0.04 0.05 0.06 0.05 0.04 0.03 0.02 0.01 0.01 0.00 0.00 0.00 0.00 0.01 0.01 0.01 0.01 0.01 0.01 0.01 0.01 0.01 0.01 0.00 0.00 0.00 0.00 0.00 0.00 0.00 0.00 0.00 0.00 0.01 0.01 0.01 0.01 0.01 0.01 0.01 0.01 0.01 0.02 0.03
0.02 0.03 0.04 0.05 0.05 0.05 0.04 0.03 0.02 0.01 0.01 0.00 0.00 0.00 0.00 0.00 0.00 0.00 0.00 0.00 0.00 0.00 0.00 0.00 0.00 0.00 0.00 0.00 0.00 0.00 0.00 0.00 0.00 0.01 0.01 0.01 0.01 0.01 0.01 0.02 0.02 0.02 0.03 0.04
MSLP
1009.89 1009.82 1009.70 1009.54 1009.35 1009.14 1008.92 1008.67 1008.41 1008.15 1007.89 1007.67 1007.50 1007.41 1007.43 1007.57 1007.85 1008.26 1008.79 1009.41 1010.10 1010.84 1011.59 1012.33 1013.07 1013.78 1014.47 1015.13 1015.75 1016.35 1016.90 1017.40 1017.85 1018.23 1018.55 1018.81 1019.01 1019.17 1019.29 1019.38 1019.45 1019.50 1019.53 1019.53
1010.01 1009.84 1009.57 1009.22 1008.81 1008.37 1007.93 1007.51 1007.13 1006.81 1006.56 1006.40 1006.33 1006.37 1006.53 1006.80 1007.18 1007.66 1008.24 1008.88 1009.58 1010.32 1011.07 1011.84 1012.60 1013.34 1014.06 1014.75 1015.40 1016.00 1016.55 1017.03 1017.45 1017.81 1018.11 1018.36 1018.57 1018.75 1018.91 1019.05 1019.16 1019.26 1019.32 1019.34
1010.00 1009.76 1009.37 1008.87 1008.28 1007.65 1007.03 1006.46 1005.96 1005.58 1005.32 1005.19 1005.20 1005.35 1005.61 1005.98 1006.45 1006.99 1007.61 1008.28 1008.99 1009.73 1010.49 1011.27 1012.05 1012.83 1013.58 1014.30 1014.98 1015.59 1016.14 1016.62 1017.02 1017.37 1017.65 1017.90 1018.11 1018.31 1018.49 1018.66 1018.81 1018.94 1019.02 1019.06
1009.77 1009.48 1009.02 1008.42 1007.72 1006.97 1006.23 1005.55 1004.98 1004.54 1004.27 1004.17 1004.23 1004.44 1004.78 1005.22 1005.75 1006.34 1006.98 1007.66 1008.38 1009.12 1009.89 1010.68 1011.49 1012.29 1013.07 1013.82 1014.52 1015.16 1015.71 1016.19 1016.59 1016.92 1017.20 1017.44 1017.65 1017.85 1018.04 1018.22 1018.38 1018.52 1018.62 1018.66
1009.28 1008.96 1008.48 1007.85 1007.11 1006.31 1005.53 1004.81 1004.20 1003.75 1003.48 1003.40 1003.49 1003.74 1004.13 1004.61 1005.17 1005.79 1006.44 1007.13 1007.84 1008.58 1009.35 1010.15 1010.96 1011.78 1012.58 1013.36 1014.08 1014.74 1015.31 1015.79 1016.19 1016.52 1016.78 1017.01 1017.20 1017.39 1017.57 1017.74 1017.89 1018.02 1018.11 1018.14
1008.53 1008.21 1007.74 1007.13 1006.42 1005.66 1004.90 1004.21 1003.63 1003.21 1002.96 1002.90 1003.02 1003.30 1003.70 1004.20 1004.78 1005.40 1006.05 1006.73 1007.44 1008.17 1008.93 1009.72 1010.53 1011.35 1012.17 1012.96 1013.70 1014.37 1014.95 1015.44 1015.84 1016.16 1016.41 1016.62 1016.79 1016.94 1017.09 1017.23 1017.35 1017.44 1017.50 1017.51
1007.60 1007.28 1006.84 1006.30 1005.67 1005.00 1004.34 1003.74 1003.23 1002.87 1002.67 1002.64 1002.79 1003.08 1003.49 1004.00 1004.57 1005.19 1005.83 1006.50 1007.19 1007.90 1008.65 1009.43 1010.23 1011.05 1011.86 1012.65 1013.39 1014.06 1014.65 1015.14 1015.53 1015.84 1016.07 1016.25 1016.38 1016.50 1016.59 1016.68 1016.75 1016.80 1016.82 1016.80
1006.58 1006.25 1005.85 1005.40 1004.89 1004.35 1003.82 1003.34 1002.95 1002.67 1002.54 1002.56 1002.73 1003.03 1003.44 1003.94 1004.51 1005.11 1005.75 1006.40 1007.08 1007.78 1008.51 1009.27 1010.06 1010.85 1011.65 1012.42 1013.14 1013.80 1014.37 1014.85 1015.23 1015.52 1015.72 1015.86 1015.95 1016.02 1016.06 1016.08 1016.10 1016.10 1016.08 1016.04
1005.58 1005.23 1004.87 1004.50 1004.11 1003.72 1003.34 1003.00 1002.73 1002.55 1002.49 1002.55 1002.75 1003.06 1003.47 1003.96 1004.52 1005.12 1005.74 1006.40 1007.06 1007.76 1008.47 1009.20 1009.96 1010.72 1011.48 1012.21 1012.90 1013.53 1014.07 1014.52 1014.87 1015.13 1015.30 1015.40 1015.45 1015.46 1015.45 1015.42 1015.39 1015.35 1015.31 1015.25
1004.69 1004.31 1003.97 1003.68 1003.40 1003.14 1002.90 1002.69 1002.53 1002.45 1002.45 1002.55 1002.76 1003.08 1003.48 1003.97 1004.53 1005.12 1005.75 1006.40 1007.07 1007.76 1008.45 1009.16 1009.88 1010.60 1011.30 1011.98 1012.62 1013.19 1013.69 1014.10 1014.41 1014.63 1014.77 1014.83 1014.84 1014.81 1014.76 1014.69 1014.62 1014.56 1014.50 1014.45
1003.95 1003.54 1003.23 1002.98 1002.79 1002.64 1002.51 1002.41 1002.34 1002.32 1002.37 1002.50 1002.72 1003.03 1003.44 1003.92 1004.48 1005.08 1005.72 1006.38 1007.05 1007.73 1008.41 1009.09 1009.76 1010.43 1011.07 1011.68 1012.24 1012.75 1013.18 1013.54 1013.81 1013.99 1014.09 1014.13 1014.11 1014.05 1013.97 1013.88 1013.80 1013.73 1013.67 1013.64
1003.39 1002.96 1002.66 1002.46 1002.33 1002.25 1002.19 1002.16 1002.15 1002.17 1002.25 1002.38 1002.60 1002.92 1003.32 1003.80 1004.36 1004.97 1005.62 1006.30 1006.98 1007.65 1008.32 1008.96 1009.59 1010.18 1010.75 1011.28 1011.76 1012.19 1012.56 1012.85 1013.07 1013.22 1013.29 1013.31 1013.27 1013.20 1013.11 1013.02 1012.95 1012.88 1012.84 1012.83
1002.99 1002.56 1002.27 1002.10 1002.02 1001.98 1001.97 1001.98 1002.00 1002.04 1002.11 1002.25 1002.46 1002.76 1003.16 1003.64 1004.21 1004.83 1005.50 1006.19 1006.87 1007.54 1008.18 1008.79 1009.36 1009.89 1010.38 1010.82 1011.22 1011.57 1011.86 1012.10 1012.28 1012.39 1012.44 1012.45 1012.41 1012.34 1012.26 1012.18 1012.11 1012.06 1012.04 1012.03
1002.72 1002.31 1002.06 1001.92 1001.87 1001.86 1001.87 1001.90 1001.92 1001.96 1002.03 1002.16 1002.36 1002.65 1003.04 1003.53 1004.10 1004.73 1005.41 1006.10 1006.79 1007.45 1008.06 1008.63 1009.14 1009.60 1010.00 1010.36 1010.68 1010.95 1011.18 1011.37 1011.50 1011.59 1011.63 1011.63 1011.60 1011.54 1011.47 1011.40 1011.34 1011.30 1011.28 1011.28
1002.57 1002.22 1002.01 1001.91 1001.88 1001.90 1001.92 1001.95 1001.98 1002.01 1002.08 1002.19 1002.39 1002.67 1003.06 1003.54 1004.11 1004.75 1005.43 1006.12 1006.80 1007.43 1008.01 1008.53 1008.98 1009.37 1009.70 1009.98 1010.22 1010.43 1010.60 1010.74 1010.84 1010.91 1010.95 1010.95 1010.92 1010.87 1010.81 1010.75 1010.69 1010.65 1010.61 1010.58
1002.56 1002.29 1002.14 1002.08 1002.08 1002.12 1002.16 1002.19 1002.22 1002.25 1002.31 1002.43 1002.62 1002.90 1003.28 1003.77 1004.33 1004.97 1005.64 1006.31 1006.96 1007.56 1008.10 1008.56 1008.95 1009.27 1009.53 1009.74 1009.91 1010.06 1010.18 1010.28 1010.36 1010.42 1010.45 1010.45 1010.42 1010.38 1010.32 1010.25 1010.18 1010.11 1010.04 1009.97
1002.74 1002.55 1002.46 1002.45 1002.48 1002.54 1002.59 1002.63 1002.67 1002.71 1002.78 1002.90 1003.10 1003.38 1003.77 1004.25 1004.80 1005.42 1006.06 1006.70 1007.31 1007.86 1008.34 1008.74 1009.06 1009.32 1009.51 1009.65 1009.77 1009.86 1009.94 1010.02 1010.07 1010.11 1010.14 1010.14 1010.11 1010.06 1009.99 1009.91 1009.81 1009.70 1009.58 1009.45
1003.16 1003.05 1003.01 1003.03 1003.09 1003.16 1003.23 1003.29 1003.34 1003.40 1003.49 1003.63 1003.84 1004.13 1004.52 1004.98 1005.52 1006.10 1006.71 1007.29 1007.84 1008.33 1008.74 1009.07 1009.32 1009.51 1009.63 1009.72 1009.78 1009.83 1009.87 1009.91 1009.94 1009.96 1009.98 1009.97 1009.93 1009.87 1009.78 1009.67 1009.54 1009.39 1009.22 1009.02
1003.87 1003.80 1003.79 1003.83 1003.90 1003.98 1004.06 1004.14 1004.21 1004.30 1004.41 1004.57 1004.80 1005.10 1005.48 1005.93 1006.43 1006.97 1007.52 1008.04 1008.52 1008.93 1009.26 1009.51 1009.68 1009.79 1009.85 1009.88 1009.88 1009.88 1009.88 1009.88 1009.89 1009.89 1009.88 1009.85 1009.81 1009.73 1009.63 1009.49 1009.33 1009.14 1008.93 1008.68
1004.83 1004.77 1004.76 1004.80 1004.86 1004.94 1005.03 1005.11 1005.20 1005.31 1005.46 1005.64 1005.88 1006.19 1006.56 1006.98 1007.45 1007.93 1008.41 1008.85 1009.24 1009.57 1009.81 1009.98 1010.07 1010.11 1010.09 1010.05 1010.00 1009.94 1009.89 1009.85 1009.82 1009.79 1009.76 1009.71 1009.65 1009.56 1009.44 1009.30 1009.13 1008.92 1008.69 1008.42
1005.97 1005.89 1005.85 1005.86 1005.90 1005.95 1006.03 1006.12 1006.23 1006.36 1006.52 1006.72 1006.98 1007.28 1007.64 1008.03 1008.44 1008.86 1009.26 1009.62 1009.93 1010.16 1010.32 1010.40 1010.42 1010.37 1010.29 1010.18 1010.06 1009.94 1009.84 1009.74 1009.67 1009.60 1009.54 1009.47 1009.40 1009.30 1009.19 1009.05 1008.89 1008.70 1008.48 1008.23
1007.16 1007.03 1006.94 1006.90 1006.89 1006.92 1006.98 1007.06 1007.17 1007.31 1007.49 1007.70 1007.96 1008.25 1008.58 1008.94 1009.30 1009.66 1009.98 1010.27 1010.49 1010.64 1010.72 1010.72 1010.66 1010.55 1010.39 1010.21 1010.03 1009.85 1009.68 1009.53 1009.41 1009.30 1009.21 1009.12 1009.04 1008.96 1008.86 1008.75 1008.63 1008.48 1008.30 1008.09
1008.27 1008.07 1007.92 1007.82 1007.76 1007.75 1007.77 1007.84 1007.94 1008.08 1008.26 1008.47 1008.72 1009.00 1009.31 1009.62 1009.93 1010.23 1010.49 1010.71 1010.86 1010.94 1010.95 1010.89 1010.77 1010.60 1010.39 1010.15 1009.91 1009.67 1009.44 1009.24 1009.06 1008.91 1008.80 1008.70 1008.62 1008.56 1008.50 1008.43 1008.36 1008.28 1008.17 1008.03
1009.16 1008.91 1008.69 1008.53 1008.42 1008.37 1008.36 1008.41 1008.49 1008.62 1008.78 1008.99 1009.22 1009.47 1009.74 1010.02 1010.28 1010.53 1010.74 1010.90 1011.01 1011.05 1011.02 1010.92 1010.76 1010.55 1010.30 1010.02 1009.73 1009.44 1009.17 1008.92 1008.71 1008.53 1008.39 1008.29 1008.22 1008.19 1008.17 1008.16 1008.16 1008.15 1008.12 1008.06
1009.80 1009.49 1009.23 1009.03 1008.88 1008.78 1008.75 1008.76 1008.82 1008.92 1009.06 1009.24 1009.44 1009.66 1009.89 1010.13 1010.35 1010.56 1010.73 1010.87 1010.94 1010.97 1010.92 1010.82 1010.65 1010.43 1010.17 1009.88 1009.57 1009.25 1008.96 1008.68 1008.44 1008.24 1008.10 1008.00 1007.95 1007.94 1007.97 1008.02 1008.08 1008.13 1008.17 1008.18
1010.18 1009.86 1009.58 1009.35 1009.17 1009.05 1008.98 1008.96 1008.98 1009.05 1009.15 1009.28 1009.44 1009.62 1009.80 1010.00 1010.19 1010.36 1010.52 1010.64 1010.72 1010.74 1010.72 1010.63 1010.49 1010.30 1010.06 1009.78 1009.48 1009.18 1008.88 1008.60 1008.35 1008.15 1008.01 1007.92 1007.89 1007.91 1007.97 1008.06 1008.17 1008.28 1008.36 1008.42
1010.42 1010.11 1009.83 1009.59 1009.40 1009.26 1009.16 1009.10 1009.09 1009.10 1009.15 1009.23 1009.33 1009.44 1009.58 1009.73 1009.88 1010.03 1010.18 1010.30 1010.39 1010.45 1010.47 1010.43 1010.34 1010.20 1010.02 1009.79 1009.53 1009.26 1008.99 1008.74 1008.51 1008.33 1008.19 1008.12 1008.11 1008.14 1008.22 1008.34 1008.47 1008.59 1008.70 1008.76
Thickness
5762 5769 5769 5766 5765 5763 5759 5763 5761 5768 5771 5778 5783 5782 5781 5778 5773 5768 5762 5758 5754 5748 5743 5739 5734 5730 5726 5721 5717 5711 5705 5701 5696 5693 5689 5685 5682 5679 5676 5673 5670 5667 5664 5661
5750 5761 5763 5759 5765 5765 5763 5766 5767 5769 5772 5789 5790 5787 5781 5776 5772 5767 5763 5760 5755 5750 5745 5740 5735 5731 5726 5721 5716 5711 5705 5701 5697 5693 5689 5685 5681 5678 5675 5672 5668 5665 5663 5660
5740 5754 5750 5746 5763 5766 5766 5770 5769 5764 5775 5787 5781 5779 5778 5777 5774 5770 5767 5764 5758 5753 5748 5743 5738 5733 5727 5722 5716 5710 5705 5701 5697 5692 5688 5685 5682 5678 5674 5670 5667 5663 5661 5659
5739 5737 5721 5757 5780 5776 5770 5772 5777 5776 5780 5782 5782 5783 5784 5782 5778 5773 5771 5766 5761 5756 5751 5746 5741 5734 5728 5722 5715 5709 5705 5701 5696 5692 5688 5684 5680 5676 5672 5669 5666 5662 5659 5657
5732 5729 5736 5757 5767 5769 5761 5762 5775 5774 5776 5779 5781 5778 5778 5782 5781 5777 5775 5771 5765 5760 5754 5747 5740 5734 5727 5720 5714 5709 5705 5700 5696 5692 5687 5682 5678 5674 5671 5667 5664 5661 5659 5656
5727 5720 5722 5748 5765 5771 5761 5750 5769 5771 5769 5772 5770 5765 5774 5780 5779 5776 5774 5770 5764 5759 5753 5744 5738 5732 5724 5719 5713 5709 5706 5701 5696 5691 5686 5681 5677 5673 5670 5666 5662 5660 5658 5655
5721 5720 5735 5753 5760 5759 5738 5743 5760 5765 5765 5766 5767 5769 5775 5778 5774 5772 5769 5765 5760 5755 5748 5741 5735 5728 5722 5717 5712 5709 5705 5699 5694 5689 5684 5680 5675 5671 5667 5664 5661 5658 5656 5654
5718 5714 5723 5746 5751 5743 5743 5752 5757 5759 5762 5762 5764 5767 5769 5769 5767 5765 5762 5758 5754 5748 5743 5737 5731 5725 5719 5714 5712 5707 5702 5696 5691 5686 5683 5680 5673 5668 5665 5661 5658 5655 5653 5651
5723 5725 5734 5742 5741 5744 5747 5747 5751 5755 5758 5758 5758 5759 5761 5761 5759 5757 5756 5752 5749 5743 5737 5731 5727 5722 5716 5712 5708 5702 5696 5691 5687 5683 5679 5676 5671 5667 5663 5659 5658 5658 5656 5653
5716 5726 5731 5735 5738 5741 5744 5745 5749 5753 5755 5755 5754 5755 5755 5755 5753 5750 5748 5745 5742 5737 5731 5725 5721 5718 5714 5709 5704 5697 5691 5687 5683 5679 5675 5671 5668 5666 5664 5661 5659 5656 5653 5651
5709 5718 5724 5727 5730 5734 5737 5742 5745 5748 5751 5751 5751 5750 5750 5748 5746 5744 5741 5738 5736 5731 5726 5720 5715 5711 5708 5704 5698 5692 5687 5683 5679 5676 5673 5669 5666 5664 5662 5659 5657 5650 5650 5647
5703 5709 5713 5716 5724 5728 5730 5733 5737 5739 5741 5744 5745 5743 5743 5741 5739 5737 5734 5731 5728 5725 5720 5715 5710 5706 5703 5698 5692 5686 5682 5678 5677 5674 5670 5667 5664 5661 5656 5652 5648 5643 5638 5634
5701 5707 5709 5713 5717 5721 5724 5727 5731 5733 5734 5734 5736 5737 5735 5733 5731 5729 5726 5723 5720 5717 5714 5710 5705 5701 5697 5692 5687 5682 5678 5675 5673 5671 5668 5663 5660 5657 5654 5649 5642 5638 5634 5629
5697 5699 5700 5705 5709 5714 5718 5721 5723 5725 5726 5727 5727 5727 5726 5723 5721 5720 5717 5716 5714 5711 5707 5703 5698 5694 5691 5686 5681 5676 5673 5669 5666 5664 5662 5659 5656 5653 5650 5647 5644 5642 5635 5628
5691 5694 5696 5699 5703 5706 5710 5712 5713 5714 5715 5716 5716 5716 5715 5713 5710 5709 5709 5708 5705 5702 5698 5695 5690 5686 5684 5680 5675 5671 5668 5666 5661 5659 5657 5654 5652 5649 5646 5643 5640 5638 5636 5631
5682 5687 5689 5690 5692 5695 5699 5700 5700 5702 5704 5705 5705 5705 5705 5704 5701 5700 5699 5698 5694 5691 5688 5685 5682 5680 5677 5673 5668 5665 5661 5656 5652 5653 5651 5649 5646 5643 5640 5637 5634 5632 5629 5627
5672 5674 5676 5678 5681 5684 5688 5690 5690 5691 5692 5693 5694 5695 5695 5694 5691 5688 5688 5687 5685 5682 5679 5676 5674 5672 5669 5665 5661 5660 5658 5653 5643 5644 5644 5642 5639 5636 5633 5629 5626 5624 5622 5620
5665 5667 5668 5670 5673 5675 5677 5679 5681 5681 5680 5681 5683 5683 5682 5680 5678 5677 5676 5675 5672 5670 5668 5666 5664 5662 5659 5656 5653 5652 5649 5647 5643 5639 5636 5633 5630 5627 5624 5621 5618 5615 5614 5612
5656 5657 5659 5660 5663 5664 5666 5667 5669 5669 5669 5671 5671 5670 5670 5669 5667 5666 5665 5663 5660 5656 5655 5654 5649 5650 5648 5645 5641 5640 5639 5637 5634 5631 5627 5622 5619 5618 5616 5613 5609 5606 5604 5602
5644 5646 5647 5649 5651 5653 5653 5655 5657 5658 5659 5660 5659 5657 5656 5656 5655 5654 5652 5650 5648 5646 5644 5641 5640 5638 5636 5634 5629 5631 5629 5627 5624 5621 5618 5615 5612 5609 5606 5603 5600 5598 5596 5593
5632 5634 5635 5637 5639 5641 5642 5643 5644 5645 5647 5648 5646 5644 5643 5642 5642 5642 5640 5638 5634 5633 5631 5628 5627 5627 5625 5622 5617 5621 5619 5616 5613 5610 5607 5605 5602 5599 5596 5593 5590 5588 5586 5583
5621 5623 5624 5625 5627 5627 5629 5631 5632 5632 5633 5633 5633 5632 5631 5629 5629 5628 5627 5624 5622 5617 5619 5620 5618 5612 5610 5606 5610 5609 5606 5604 5602 5599 5597 5594 5591 5588 5585 5582 5580 5578 5575 5572
5610 5610 5611 5612 5614 5615 5616 5618 5618 5619 5619 5618 5618 5618 5618 5617 5618 5616 5614 5612 5612 5605 5606 5607 5601 5596 5592 5596 5598 5597 5595 5593 5590 5587 5585 5582 5580 5577 5574 5571 5569 5566 5563 5560
5598 5599 5600 5602 5604 5604 5603 5605 5606 5606 5607 5607 5607 5606 5605 5605 5605 5606 5604 5599 5596 5593 5595 5592 5586 5583 5579 5586 5587 5585 5583 5580 5578 5575 5572 5569 5567 5565 5563 5559 5556 5553 5550 5547
5587 5589 5590 5591 5592 5593 5592 5594 5595 5595 5597 5597 5597 5597 5596 5595 5593 5592 5591 5589 5584 5581 5583 5580 5574 5571 5572 5576 5575 5573 5571 5568 5565 5561 5559 5557 5555 5552 5550 5546 5543 5540 5537 5534
5577 5578 5577 5577 5578 5580 5583 5584 5585 5585 5585 5584 5585 5585 5584 5583 5582 5581 5579 5578 5575 5571 5571 5570 5568 5563 5564 5564 5563 5560 5558 5555 5553 5551 5549 5545 5542 5540 5537 5533 5529 5527 5524 5522
5568 5568 5568 5569 5570 5570 5571 5571 5571 5571 5571 5570 5569 5569 5570 5569 5569 5568 5566 5565 5564 5562 5560 5558 5557 5555 5553 5551 5549 5547 5545 5543 5541 5538 5536 5533 5530 5527 5525 5521 5518 5515 5513 5512